This is the latest recevied weather packets stored in our database for station/object KC0RKM-13. If no packets are shown the sender has not sent any weather packets the latest 10 day(s).
| Time | Temp. | Humidity | Pressure | Rain* | Wind** | Luminosity | Snow |
|---|---|---|---|---|---|---|---|
| 1788508804 | 25° C | 75% | 1012 hPa | 0 mm | - | - | - |
| 1788508204 | 25° C | 75% | 1012.1 hPa | 0 mm | - | - | - |
| 1788507604 | 25° C | 73% | 1011.9 hPa | 0 mm | - | - | - |
| 1788507004 | 25° C | 74% | 1012.2 hPa | 0 mm | - | - | - |
| 1788506404 | 25.56° C | 73% | 1012 hPa | 0 mm | - | - | - |
| 1788505803 | 25.56° C | 73% | 1012.1 hPa | 0 mm | - | - | - |
| 1788505203 | 26.11° C | 69% | 1011.7 hPa | 0 mm | - | - | - |
| 1788504603 | 26.67° C | 68% | 1011.9 hPa | 0 mm | - | - | - |
| 1788504004 | 26.67° C | 67% | 1011.6 hPa | 0 mm | - | - | - |
| 1788503404 | 26.67° C | 68% | 1012.1 hPa | 0 mm | - | - | - |
| 1788502803 | 26.67° C | 68% | 1012.2 hPa | 0 mm | - | - | - |
| 1788502203 | 27.22° C | 66% | 1011.9 hPa | 0 mm | - | - | - |
| 1788501603 | 27.22° C | 65% | 1011.6 hPa | 0 mm | - | - | - |
| 1788501003 | 27.78° C | 64% | 1011.8 hPa | 0 mm | - | - | - |
| 1788500404 | 27.78° C | 64% | 1011.6 hPa | 0 mm | - | - | - |
| 1788499803 | 27.78° C | 63% | 1011.5 hPa | 0 mm | - | - | - |
| 1788499203 | 28.33° C | 61% | 1011.5 hPa | 0 mm | - | - | - |
| 1788498604 | 28.33° C | 61% | 1011.3 hPa | 0 mm | - | - | - |
| 1788498004 | 27.78° C | 61% | 1011.4 hPa | 0 mm | - | - | - |
| 1788497404 | 27.78° C | 61% | 1011.3 hPa | 0 mm | - | - | - |
| 1788496804 | 27.78° C | 61% | 1011.3 hPa | 0 mm | - | - | - |
| 1788496203 | 27.78° C | 61% | 1011.2 hPa | 0 mm | - | - | - |
| 1788495603 | 27.78° C | 61% | 1011.1 hPa | 0 mm | - | - | - |
| 1788495003 | 27.78° C | 61% | 1011.3 hPa | 0 mm | - | - | - |
| 1788494404 | 27.78° C | 60% | 1011.4 hPa | 0 mm | - | - | - |
* Rain latest hour (hover to see other rain measurements)
** Current wind speed in m/s (hover to see current wind gust speed)